GW3068 Weather Reports


Display with metric or nautical units.
time (UTC)temp
F
wind
direction
speed
MPH
gust
MPH
rain 1hr
in
rain 24hr
in
rain mn
in
humidity
%
barometer
mb
20260506202056 55 13 3.0 8.0 0.00 0.00 0.00 49 1009.8
20260506201555 54 11 4.0 8.0 0.00 0.00 0.00 46 1009.9
20260506201053 54 295 2.0 10.0 0.00 0.00 0.00 52 1009.9
20260506200555 55 287 4.0 10.0 0.00 0.00 0.00 45 1010.0
20260506200054 56 32 5.0 10.0 0.00 0.00 0.00 47 1010.0
20260506195557 57 347 4.0 9.0 0.00 0.00 0.00 50 1010.2
20260506195053 55 232 3.0 12.0 0.00 0.00 0.00 46 1010.1
20260506194556 56 347 4.0 15.0 0.00 0.00 0.00 50 1010.2
20260506194056 56 286 5.0 15.0 0.00 0.00 0.00 50 1010.1
20260506193556 56 343 3.0 9.0 0.00 0.00 0.00 52 1010.3
20260506193054 55 345 3.0 10.0 0.00 0.00 0.00 45 1010.2
20260506192556 55 341 5.0 13.0 0.00 0.00 0.00 51 1010.1
20260506192055 55 360 4.0 13.0 0.00 0.00 0.00 54 1010.4
20260506191606 54 324 5.0 10.0 0.00 0.00 0.00 48 1010.4
20260506191055 56 20 4.0 9.0 0.00 0.00 0.00 48 1010.5
20260506190556 54 316 3.0 6.0 0.00 0.00 0.00 54 1010.5
20260506190057 52 316 1.0 6.0 0.00 0.00 0.00 53 1010.6
20260506185555 53 241 1.0 12.0 0.00 0.00 0.00 53 1010.5
20260506185055 53 270 2.0 12.0 0.00 0.00 0.00 50 1010.4
20260506184627 55 325 6.0 11.0 0.00 0.00 0.00 53 1010.3
20260506184056 55 340 3.0 8.0 0.00 0.00 0.00 48 1010.4
20260506183558 54 331 3.0 8.0 0.00 0.00 0.00 50 1010.2
20260506183104 54 352 3.0 13.0 0.00 0.00 0.00 51 1010.3
20260506182556 54 32 4.0 13.0 0.00 0.00 0.00 53 1010.3
20260506182056 53 5 6.0 13.0 0.00 0.00 0.00 47 1010.3
20260506181559 54 318 2.0 12.0 0.00 0.00 0.00 51 1010.2
20260506181057 54 329 2.0 12.0 0.00 0.00 0.00 53 1010.1
20260506180556 53 335 4.0 11.0 0.00 0.00 0.00 53 1010.1
20260506180058 54 327 4.0 9.0 0.00 0.00 0.00 53 1010.3
20260506175554 54 315 3.0 8.0 0.00 0.00 0.00 53 1010.2
20260506175053 53 335 3.0 8.0 0.00 0.00 0.00 52 1010.3
20260506174557 53 352 3.0 8.0 0.00 0.00 0.00 48 1010.5
20260506174055 53 275 2.0 9.0 0.00 0.00 0.00 52 1010.5
20260506173556 53 277 2.0 9.0 0.00 0.00 0.00 52 1010.5
20260506173100 53 262 2.0 13.0 0.00 0.00 0.00 52 1010.7
20260506172555 52 21 4.0 13.0 0.00 0.00 0.00 55 1010.9
20260506172055 52 296 4.0 10.0 0.00 0.00 0.00 51 1010.9
20260506171607 51 11 1.0 10.0 0.00 0.00 0.00 54 1011.0
20260506171055 51 314 3.0 10.0 0.00 0.00 0.00 55 1011.0
20260506170555 51 10 4.0 8.0 0.00 0.00 0.00 51 1011.0
20260506170100 52 338 3.0 11.0 0.00 0.00 0.00 51 1011.0
20260506165555 52 309 3.0 11.0 0.00 0.02 0.00 54 1010.7
20260506165055 51 346 5.0 11.0 0.00 0.02 0.00 51 1010.7
20260506164555 51 316 3.0 10.0 0.00 0.02 0.00 52 1010.8
20260506164055 51 319 4.0 10.0 0.00 0.02 0.00 51 1010.7
20260506163554 51 329 2.0 8.0 0.00 0.02 0.00 50 1010.7
20260506163107 51 13 3.0 8.0 0.00 0.02 0.00 54 1010.7
20260506162554 51 298 3.0 9.0 0.00 0.02 0.00 57 1010.6
20260506162058 51 344 4.0 9.0 0.00 0.02 0.00 57 1010.7
20260506161557 51 14 2.0 10.0 0.00 0.02 0.00 53 1010.4
20260506161055 51 249 2.0 12.0 0.00 0.02 0.00 54 1010.5
20260506160556 51 293 3.0 12.0 0.00 0.02 0.00 54 1010.4
20260506160107 51 344 3.0 14.0 0.00 0.02 0.00 52 1010.5
20260506155555 51 263 6.0 14.0 0.00 0.02 0.00 48 1010.4
20260506155056 52 360 5.0 11.0 0.00 0.02 0.00 51 1010.4
20260506154558 52 348 4.0 11.0 0.00 0.02 0.00 53 1010.3
20260506154058 52 5 2.0 11.0 0.00 0.02 0.00 54 1010.2
20260506153555 52 327 2.0 11.0 0.00 0.02 0.00 55 1010.3
20260506153057 52 15 3.0 11.0 0.00 0.02 0.00 54 1010.2
20260506152555 52 12 2.0 8.0 0.00 0.02 0.00 55 1010.3
20260506152055 51 31 3.0 9.0 0.00 0.02 0.00 56 1010.2
20260506151557 51 258 3.0 9.0 0.00 0.02 0.00 52 1010.2
20260506151055 52 352 3.0 9.0 0.00 0.02 0.00 53 1010.2
20260506150555 51 348 4.0 9.0 0.00 0.02 0.00 53 1010.0
20260506150056 52 338 3.0 9.0 0.00 0.02 0.00 56 1010.0
20260506145555 51 294 3.0 9.0 0.00 0.02 0.00 55 1010.1
20260506145054 51 352 3.0 9.0 0.00 0.02 0.00 55 1009.9
20260506144604 51 296 4.0 9.0 0.00 0.02 0.00 50 1009.8
20260506144055 52 288 2.0 7.0 0.00 0.02 0.00 55 1009.9
20260506143555 53 279 1.0 7.0 0.00 0.02 0.00 51 1009.8
20260506143056 52 5 2.0 8.0 0.00 0.02 0.00 55 1009.7
20260506142555 52 302 2.0 8.0 0.00 0.02 0.00 59 1009.7
20260506142056 51 297 4.0 8.0 0.00 0.02 0.00 55 1009.7
20260506141553 51 344 4.0 13.0 0.00 0.02 0.00 56 1009.4
20260506141055 51 319 2.0 13.0 0.00 0.02 0.00 54 1009.6
20260506140556 51 334 5.0 13.0 0.00 0.02 0.00 56 1009.7
20260506140101 51 272 3.0 9.0 0.00 0.02 0.00 56 1009.6
20260506135554 51 360 4.0 10.0 0.00 0.02 0.00 56 1009.7
20260506135056 50 14 4.0 10.0 0.00 0.02 0.00 56 1009.5
20260506134556 50 342 3.0 11.0 0.00 0.02 0.00 57 1009.4
20260506134058 50 297 4.0 11.0 0.00 0.02 0.00 59 1009.3
20260506133556 49 5 4.0 12.0 0.00 0.02 0.00 56 1009.3
20260506133054 50 21 4.0 12.0 0.00 0.02 0.00 55 1009.4
20260506132556 49 347 4.0 11.0 0.00 0.02 0.00 59 1009.4
20260506132059 49 333 5.0 11.0 0.00 0.02 0.00 57 1009.4
20260506131607 49 281 2.0 9.0 0.00 0.02 0.00 60 1009.3
20260506131053 49 341 2.0 6.0 0.00 0.02 0.00 58 1009.0
20260506130554 49 290 3.0 6.0 0.00 0.02 0.00 59 1009.1
20260506130057 48 351 2.0 10.0 0.00 0.02 0.00 61 1009.2
20260506125555 48 360 3.0 10.0 0.00 0.02 0.00 63 1009.1
20260506125055 48 9 3.0 9.0 0.00 0.02 0.00 63 1009.0
20260506124556 47 268 3.0 9.0 0.00 0.02 0.00 62 1009.0
20260506124055 47 350 3.0 10.0 0.00 0.02 0.00 63 1009.0
20260506123554 47 332 2.0 10.0 0.00 0.02 0.00 64 1008.8
20260506123058 46 352 2.0 8.0 0.00 0.02 0.00 65 1008.9
20260506122555 46 305 2.0 6.0 0.00 0.02 0.00 65 1008.8
20260506122054 46 0 2.0 6.0 0.00 0.02 0.00 66 1008.7
20260506121600 45 360 1.0 6.0 0.00 0.02 0.00 67 1008.7
20260506121055 45 5 1.0 4.0 0.00 0.02 0.00 67 1008.5
20260506120557 44 299 1.0 4.0 0.00 0.02 0.00 70 1008.3
20260506115555 43 334 0.0 4.0 0.00 0.02 0.00 72 1008.2
20260506115056 43 0 1.0 4.0 0.00 0.02 0.00 71 1008.2
20260506114556 43 0 1.0 5.0 0.00 0.02 0.00 70 1008.2
20260506114055 43 318 1.0 5.0 0.00 0.02 0.00 71 1008.1
20260506113555 43 329 0.0 3.0 0.00 0.02 0.00 73 1008.1
20260506113054 43 329 0.0 3.0 0.00 0.02 0.00 72 1008.1
20260506112557 42 0 1.0 3.0 0.00 0.02 0.00 72 1008.1
20260506112056 42 329 0.0 2.0 0.00 0.02 0.00 72 1008.0
20260506111554 43 0 0.0 4.0 0.00 0.02 0.00 71 1007.9
20260506111058 43 0 0.0 4.0 0.00 0.02 0.00 71 1008.0
20260506110555 43 338 0.0 0.0 0.00 0.02 0.00 71 1007.8
20260506110058 42 0 0.0 0.0 0.00 0.02 0.00 72 1007.7
20260506105555 42 0 0.0 0.0 0.00 0.02 0.00 72 1007.5
20260506105058 42 0 0.0 0.0 0.00 0.02 0.00 72 1007.4
20260506104601 42 0 0.0 0.0 0.00 0.02 0.00 72 1007.3
20260506104054 43 0 0.0 3.0 0.00 0.02 0.00 72 1007.2
20260506103556 43 0 0.0 4.0 0.00 0.02 0.00 71 1007.3
20260506103056 43 0 0.0 4.0 0.00 0.02 0.00 72 1007.3
20260506102557 43 337 0.0 4.0 0.00 0.02 0.00 71 1007.2
20260506102055 44 0 0.0 4.0 0.00 0.02 0.00 71 1007.2
20260506101557 44 337 1.0 4.0 0.00 0.02 0.00 70 1007.0
20260506101054 44 0 1.0 4.0 0.00 0.02 0.00 71 1007.0
20260506100554 44 311 0.0 4.0 0.00 0.02 0.00 71 1007.2
20260506100109 44 313 0.0 3.0 0.00 0.02 0.00 71 1007.1
20260506095558 44 0 0.0 3.0 0.00 0.02 0.00 70 1007.2
20260506095057 45 327 0.0 3.0 0.00 0.02 0.00 71 1007.2
20260506094555 45 327 0.0 3.0 0.00 0.02 0.00 70 1007.0
20260506094054 45 327 1.0 3.0 0.00 0.02 0.00 68 1007.0
20260506093555 45 0 0.0 4.0 0.00 0.02 0.00 70 1007.0
20260506093058 45 0 1.0 4.0 0.00 0.02 0.00 68 1007.0
20260506092557 45 300 1.0 4.0 0.00 0.02 0.00 68 1007.0
20260506092057 45 0 1.0 5.0 0.00 0.02 0.00 69 1006.9
20260506091556 45 315 0.0 5.0 0.00 0.02 0.00 68 1006.6
20260506091056 45 348 2.0 5.0 0.00 0.02 0.00 68 1006.7
20260506090554 45 20 1.0 5.0 0.00 0.02 0.00 68 1006.7
20260506090056 45 329 1.0 5.0 0.00 0.02 0.00 70 1006.8
20260506085555 45 0 1.0 4.0 0.00 0.02 0.00 70 1006.7
20260506085054 45 360 0.0 4.0 0.00 0.02 0.00 69 1006.6
20260506084602 45 0 2.0 4.0 0.00 0.02 0.00 69 1006.3
20260506084055 45 310 1.0 5.0 0.00 0.02 0.00 70 1006.4
20260506083557 45 0 1.0 5.0 0.00 0.02 0.00 69 1006.4
20260506083058 45 303 1.0 5.0 0.00 0.02 0.00 68 1006.4
20260506082555 45 343 1.0 4.0 0.00 0.02 0.00 70 1006.3
20260506082055 45 317 1.0 5.0 0.00 0.02 0.00 68 1006.6
20260506081558 45 288 1.0 5.0 0.00 0.02 0.00 69 1006.4
20260506081055 45 336 2.0 8.0 0.00 0.02 0.00 68 1006.3
20260506080556 45 352 2.0 8.0 0.00 0.02 0.00 68 1006.4
20260506073057 45 327 1.0 3.0 0.00 0.02 0.00 69 1006.2
20260506072555 46 327 0.0 4.0 0.00 0.02 0.00 68 1006.4
20260506072058 46 0 1.0 4.0 0.00 0.02 0.00 70 1006.5
20260506071559 46 316 1.0 3.0 0.00 0.02 0.00 70 1006.5
20260506071054 46 0 1.0 3.0 0.00 0.02 0.00 70 1006.5
20260506070558 46 306 1.0 3.0 0.00 0.02 0.00 70 1006.4
20260506062055 46 355 0.0 0.0 0.00 0.02 0.00 70 1006.7
20260506061556 46 0 0.0 0.0 0.00 0.02 0.00 70 1006.7
20260506061057 46 0 0.0 1.0 0.00 0.02 0.00 70 1006.8
20260506060555 46 0 0.0 1.0 0.00 0.02 0.00 70 1006.9
20260506051055 46 0 0.0 0.0 0.00 0.05 0.00 73 1006.6
20260506050555 46 0 0.0 0.0 0.00 0.05 0.00 74 1006.7
20260506050103 46 0 0.0 0.0 0.00 0.05 0.00 71 1006.6
20260506045054 46 0 0.0 0.0 0.00 0.23 0.00 73 1006.9
20260506044557 46 0 0.0 0.0 0.00 0.23 0.00 76 1006.8
20260506044054 47 0 0.0 0.0 0.00 0.23 0.00 74 1006.9
20260506043554 47 0 0.0 0.0 0.00 0.23 0.00 73 1006.8
20260506043056 47 0 0.0 0.0 0.00 0.23 0.00 74 1006.7
20260506042554 47 0 0.0 0.0 0.00 0.23 0.00 73 1006.6
20260506042058 47 0 0.0 0.0 0.00 0.23 0.00 75 1006.6
20260506041602 47 0 0.0 0.0 0.00 0.23 0.00 73 1006.6
20260506041055 47 0 0.0 0.0 0.00 0.23 0.00 71 1006.7
20260506040556 47 0 0.0 0.0 0.00 0.23 0.00 73 1006.7
20260506040110 47 0 0.0 0.0 0.00 0.23 0.00 74 1006.7
20260506035555 47 0 0.0 0.0 0.00 0.24 0.23 74 1006.9
20260506035055 47 0 0.0 0.0 0.00 0.24 0.23 72 1006.8
20260506034555 47 0 0.0 0.0 0.00 0.24 0.23 72 1006.6
20260506034054 48 0 0.0 0.0 0.00 0.24 0.23 72 1006.6
20260506033554 48 0 0.0 0.0 0.00 0.24 0.23 67 1006.4
20260506033056 48 0 0.0 0.0 0.00 0.24 0.23 67 1006.4
20260506032555 48 0 0.0 0.0 0.00 0.24 0.23 68 1006.2
20260506032055 47 0 0.0 0.0 0.00 0.24 0.23 70 1006.2
20260506031556 48 0 0.0 0.0 0.00 0.24 0.23 70 1006.3
20260506031057 48 0 0.0 0.0 0.00 0.24 0.23 69 1006.4
20260506030556 47 0 0.0 0.0 0.00 0.24 0.23 69 1006.5
20260506030107 47 0 0.0 0.0 0.00 0.24 0.23 69 1006.7
20260506025555 47 0 0.0 0.0 0.00 0.24 0.23 68 1006.7
20260506025055 47 0 0.0 0.0 0.00 0.24 0.23 69 1006.6
20260506024558 47 0 0.0 0.0 0.00 0.24 0.23 70 1006.5
20260506024056 48 0 0.0 0.0 0.00 0.24 0.23 70 1006.6
20260506023554 48 0 0.0 0.0 0.00 0.24 0.23 69 1006.6
20260506023057 48 0 0.0 0.0 0.00 0.24 0.23 65 1006.5
20260506022555 48 0 0.0 0.0 0.00 0.24 0.23 65 1006.5
20260506022055 48 0 0.0 0.0 0.00 0.24 0.23 64 1006.6
20260506021609 48 0 0.0 0.0 0.00 0.24 0.23 66 1006.5
20260506021055 48 0 0.0 0.0 0.00 0.24 0.23 70 1006.6
20260506020554 48 0 0.0 0.0 0.00 0.24 0.23 67 1006.5
20260506020059 48 0 0.0 0.0 0.00 0.24 0.23 66 1006.5
20260506015555 48 0 0.0 0.0 0.00 0.24 0.23 64 1006.6
20260506015057 48 0 0.0 2.0 0.00 0.24 0.23 66 1006.5
20260506014612 48 0 0.0 3.0 0.00 0.24 0.23 63 1006.4
20260506014054 48 0 0.0 3.0 0.00 0.24 0.23 66 1006.4
20260506013554 48 310 0.0 2.0 0.00 0.24 0.23 66 1006.2
20260506013100 49 310 0.0 2.0 0.00 0.24 0.23 63 1006.0
20260506012555 49 0 0.0 2.0 0.00 0.24 0.23 63 1006.2
20260506012059 48 0 0.0 2.0 0.00 0.24 0.23 65 1006.0
20260506011556 48 0 0.0 2.0 0.00 0.24 0.23 66 1006.0
20260506011055 48 0 0.0 2.0 0.00 0.24 0.23 69 1006.0
20260506010556 49 0 0.0 2.0 0.00 0.24 0.23 64 1005.8
20260506010107 49 0 0.0 2.0 0.00 0.24 0.23 63 1005.9
20260506005555 49 310 0.0 2.0 0.00 0.24 0.23 65 1005.9
20260506005054 49 310 0.0 2.0 0.00 0.24 0.23 63 1006.0
20260506004602 50 310 0.0 3.0 0.00 0.24 0.23 62 1006.0
20260506004055 50 310 0.0 3.0 0.00 0.24 0.23 58 1006.0
20260506003555 50 310 0.0 1.0 0.00 0.24 0.23 59 1005.9
20260506003104 50 0 0.0 4.0 0.00 0.24 0.23 61 1006.1
20260506002556 50 0 0.0 4.0 0.00 0.24 0.23 59 1006.2
20260506002056 50 317 1.0 4.0 0.00 0.24 0.23 59 1006.2
20260506001601 51 340 1.0 4.0 0.00 0.24 0.23 60 1006.1
20260506001054 51 0 1.0 6.0 0.00 0.24 0.23 61 1006.1
20260506000555 51 315 1.0 6.0 0.00 0.24 0.23 61 1006.0
20260506000107 51 288 0.0 4.0 0.00 0.24 0.23 64 1006.1
20260505235556 51 0 1.0 4.0 0.00 0.27 0.23 62 1006.0
20260505235055 51 0 1.0 2.0 0.00 0.27 0.23 62 1005.9
20260505234557 51 301 1.0 4.0 0.00 0.27 0.23 62 1005.9
20260505234057 51 300 0.0 4.0 0.00 0.27 0.23 63 1005.8
20260505233556 51 360 0.0 4.0 0.00 0.27 0.23 63 1005.7
20260505233129 51 360 1.0 4.0 0.00 0.27 0.23 63 1005.6
20260505232557 51 329 1.0 4.0 0.00 0.27 0.23 62 1005.6
20260505232056 52 341 0.0 6.0 0.00 0.27 0.23 65 1005.4
20260505231600 52 341 1.0 6.0 0.00 0.27 0.23 65 1005.2
20260505231055 52 348 2.0 6.0 0.00 0.27 0.23 64 1005.2
20260505230556 52 340 2.0 4.0 0.00 0.27 0.23 65 1005.3
20260505230058 52 323 2.0 4.0 0.00 0.27 0.23 66 1005.2
20260505225557 52 0 1.0 4.0 0.00 0.52 0.23 65 1005.3
20260505225055 53 315 1.0 4.0 0.00 0.52 0.23 65 1005.3
20260505224601 53 304 0.0 5.0 0.00 0.52 0.23 64 1005.5
20260505224058 53 309 1.0 5.0 0.00 0.52 0.23 62 1005.5
20260505223554 53 315 1.0 5.0 0.00 0.52 0.23 64 1005.5
20260505223100 53 325 2.0 6.0 0.00 0.52 0.23 63 1005.5
20260505222557 53 350 1.0 6.0 0.00 0.52 0.23 62 1005.5
20260505222054 53 314 2.0 6.0 0.00 0.52 0.23 63 1005.5
20260505221605 53 326 1.0 5.0 0.00 0.52 0.23 66 1005.6
20260505221058 53 360 1.0 5.0 0.00 0.52 0.23 65 1005.5
20260505220555 53 327 2.0 5.0 0.00 0.52 0.23 66 1005.5
20260505220059 53 336 3.0 5.0 0.00 0.52 0.23 67 1005.3
20260505215555 54 343 1.0 4.0 0.00 0.52 0.23 72 1005.3
20260505215058 54 0 1.0 4.0 0.00 0.52 0.23 72 1005.2
20260505214559 54 17 1.0 4.0 0.00 0.52 0.23 71 1005.2
20260505214055 54 278 0.0 7.0 0.00 0.52 0.23 70 1005.3
20260505213554 54 294 1.0 8.0 0.00 0.52 0.23 72 1005.4
20260505213113 54 257 2.0 8.0 0.00 0.52 0.23 70 1005.3
20260505212554 54 180 1.0 6.0 0.00 0.52 0.23 69 1005.3
20260505212055 54 238 1.0 6.0 0.00 0.52 0.23 70 1005.4
20260505211558 54 236 1.0 4.0 0.00 0.52 0.23 70 1005.3
20260505211058 54 315 0.0 3.0 0.00 0.52 0.23 71 1005.4
20260505210558 54 0 1.0 3.0 0.00 0.52 0.23 72 1005.5
20260505210103 54 309 1.0 3.0 0.00 0.52 0.23 70 1005.5
20260505205557 54 328 1.0 3.0 0.00 0.52 0.23 71 1005.5
20260505205057 53 360 1.0 5.0 0.00 0.52 0.23 70 1005.5
20260505204601 53 0 0.0 6.0 0.00 0.52 0.23 71 1005.6
20260505204054 53 335 1.0 6.0 0.00 0.52 0.23 71 1005.6
20260505203557 53 317 2.0 6.0 0.00 0.52 0.23 70 1005.6
20260505203057 54 85 2.0 9.0 0.00 0.52 0.23 69 1005.6
20260505202558 54 341 1.0 9.0 0.00 0.52 0.23 70 1005.7